User: anonymous   Login
Location: Unspecified
(0.0000°N, 0.0000°E)
Time: 13:56:58
(UTC+00:00)
Language:

FO-99 - Orbit

View from above orbital plane
View from above orbital plane
View from above satellite
View from above satellite

Ground track
Ground track

The orbit data is extracted from the following two-line orbital elements,

1 43937U 19003F   21342.85157760  .00002354  00000-0  91143-4 0  9996
2 43937  97.1559  18.9505 0024166 111.9387 248.4424 15.26866659160864
Epoch (UTC): 08 December 2021 20:26:16
Eccentricity: 0.0024166
inclination: 97.1559°
perigee height: 468 km
apogee height: 502 km
right ascension of ascending node: 18.9505°
argument of perigee: 111.9387°
revolutions per day: 15.26866659
mean anomaly at epoch: 248.4424°
orbit number at epoch: 16086

The dashed part of the orbit path shows where the satellite is in the earth's shadow,  

DLR